Regional Weather Roundup
Issued by NWS Kansas City/Pleasant Hill, MO

Home | Current Version | Previous Version | Text Only | Print | Product List | Glossary On
Versions: 1 2 3 4 5 6 7 8 9 10 11 12 13 14 15 16 17 18 19 20 21 22 23 24 25 26 27 28 29 30 31 32 33 34 35 36 37 38 39 40 41 42 43 44 45 46 47 48 49 50
000
ASUS43 KEAX 181010
RWREAX

WEATHER ROUNDUP FOR EASTERN KANSAS AND NORTHWEST MISSOURI
NATIONAL WEATHER SERVICE KANSAS CITY/PLEASANT HILL MO
400 AM CST WED JAN 18 2017

KSZ040-057-103>105-MOZ028-029-037-043-181100-
...KANSAS CITY METROPOLITAN AREA...

CITY           SKY/WX    TMP DP  RH WIND       PRES   REMARKS
K.C. INTL      PTCLDY    29  27  92 SW5       30.13F FOG     WCI  24
K.C. DOWNTOWN  FOG       28  26  92 CALM      30.14F VSB 1/4
LEES SUMMIT    FOG       31  31 100 S5        30.15S VSB 1/4 WCI  26
OLATHE - IXD   FOG       26  26 100 S3        30.15S VSB 1/4
OLATHE - OJC   FOG       28  28 100 S6        30.14F VSB 1/4 WCI  22
LAWRENCE       FOG       25  25 100 CALM      30.15S VSB 1/4

$$

MOZ001>008-011>017-020>025-030>033-038>040-044>046-053-054-181100-
...NORTHERN AND CENTRAL MISSOURI...

CITY           SKY/WX    TMP DP  RH WIND       PRES   REMARKS
ST. JOSEPH     FOG       29  29 100 S6        30.15F VSB 1/4 WCI  23
MOSBY          FOG       27  27 100 CALM      30.16F VSB 1/4
WARRENSBURG    CLOUDY    36  34  93 S9        30.17S FOG     WCI  29
WHITEMAN AFB   CLOUDY    36  36 100 SW7       30.16R WCI  30
CLINTON        CLOUDY    36  36 100 CALM      30.18F
SEDALIA        CLOUDY    37  36  96 SW5       30.18S WCI  33
WARSAW         NOT AVBL
CHILLICOTHE      N/A     34  33  96 CALM      30.15F
KIRKSVILLE     MOCLDY    32  31  96 SW3       30.15F

$$

MOZ041-047>049-056>058-063>065-088>090-097-181100-
...EASTERN AND SOUTHERN MISSOURI...

CITY           SKY/WX    TMP DP  RH WIND       PRES   REMARKS
ST. LOUIS INTL CLOUDY    40  33  76 NW10      30.18F WCI  33
SPIRIT OF STL  CLOUDY    39  34  82 W7        30.19S WCI  34
COLUMBIA       CLOUDY    36  32  85 NW5       30.17F WCI  32
JEFFERSON CITY CLOUDY    37  31  78 NW5       30.19S WCI  33
ROLLA          CLOUDY    36  33  89 VRB6      30.16S WCI  31
OSAGE BEACH    CLOUDY    37  33  85 N3        30.19R
SPRINGFIELD    FOG       36  34  92 E3        30.16F VSB 1/2
BRANSON        CLOUDY    37  37 100 CALM      30.17F FOG
JOPLIN         FOG       36  36 100 E6        30.16F VSB 1/4 WCI  31
WEST PLAINS    CLOUDY    36  36 100 W3        30.18R FOG

$$

IAZ060-094-KSZ022-034>040-054-083-096-NEZ052-066-093-181100-
...KANSAS...SOUTHEAST NEBRASKA AND IOWA...

CITY           SKY/WX    TMP DP  RH WIND       PRES   REMARKS
TOPEKA         CLOUDY    28  25  88 CALM      30.15R FOG
MANHATTAN      CLOUDY    24  22  91 CALM      30.12F
EMPORIA        CLEAR     32  29  88 SW5       30.12F WCI  27
CHANUTE        FOG       31  29  92 SE3       30.16S VSB 1/2
WICHITA        PTCLDY    36  32  85 CALM      30.12F
OMAHA          CLOUDY    26  21  81 S10       30.07F WCI  16
LINCOLN        CLOUDY    29  27  92 S3        30.07F
FALLS CITY     CLOUDY    28  25  88 S5        30.11F WCI  23
LAMONI         FOG       32  31  96 SW10      30.11F VSB 1/2 WCI  24
DES MOINES     PTCLDY    30  28  92 SW5       30.09F WCI  25

$$




USA.gov is the U.S. government's official web portal to all federal, state and local government web resources and services.